Temperature
4 4 4 4 4 4 4 4 3 3 3 3 4 4 3 3 3 3 3 3 3 3 3 3 3 3 3 3 3 2 2 3 3 3 3 3 3 3
3 3 3 3 3 3 3 3 3 3 3 3 3 3 3 3 3 3 3 2 2 2 2 2 2 2 2 2 2 2 2 2 2 2 2 2 2 2
2 3 3 3 3 3 3 3 3 2 2 2 3 2 2 2 2 2 2 2 2 2 2 2 2 2 2 2 2 2 2 2 2 2 2 2 2 2
2 2 2 2 2 2 2 2 2 2 2 2 2 2 2 2 2 2 2 2 2 2 1 1 1 1 1 1 1 1 1 1 2 2 2 2 2 1
2 2 2 2 2 2 2 2 2 2 1 1 1 1 1 1 1 1 1 1 1 1 1 1 1 1 1 1 1 1 1 1 1 1 1 1 1 1
1 1 1 1 1 1 1 1 1 1 1 1 1 1 1 1 1 1 1 1 1 1 1 1 0 0 0 0 1 1 1 1 1 1 1 1 1 1
1 1 1 1 1 1 1 1 1 1 1 0 0 0 0 0 -0 0 0 0 0 0 0 0 0 0 0 0 0 0 0 1 1 1 1 1 1 1
0 0 0 1 0 0 0 0 0 0 0 0 -0 -1 -0 -0 -0 -0 -0 -0 -1 -0 -0 -0 -0 0 0 0 0 0 0 0 0 0 1 1 1 0
-0 -0 0 -0 -0 -0 -0 -0 -0 -0 -0 -0 -1 -1 -1 -1 -1 -1 -1 -1 -1 -1 -1 -1 -0 -0 -0 -0 -0 -0 -0 -0 -0 -0 0 0 0 0
-1 -1 -0 -1 -1 -1 -0 -0 -1 -1 -1 -1 -1 -1 -1 -1 -1 -1 -1 -1 -1 -2 -2 -1 -1 -1 -0 -0 -1 -1 -1 -1 -0 -0 -0 -0 -0 -0
-1 -1 -1 -1 -1 -1 -1 -1 -1 -1 -1 -1 -1 -1 -1 -1 -1 -1 -2 -2 -2 -2 -2 -2 -2 -2 -1 -1 -1 -1 -1 -1 -1 -1 -1 -0 -0 -0
-1 -1 -1 -1 -1 -1 -1 -1 -1 -1 -1 -1 -1 -1 -1 -1 -2 -2 -2 -2 -3 -3 -2 -3 -2 -2 -2 -1 -1 -1 -1 -1 -1 -1 -1 -1 -1 -0
-2 -2 -2 -2 -2 -2 -2 -2 -2 -2 -2 -2 -2 -2 -2 -2 -2 -2 -2 -3 -3 -3 -3 -3 -3 -3 -3 -2 -2 -2 -1 -1 -1 -1 -1 -1 -1 -1
-2 -2 -2 -2 -2 -2 -2 -2 -2 -2 -2 -2 -2 -2 -2 -2 -2 -3 -3 -3 -3 -3 -3 -3 -3 -3 -3 -3 -3 -2 -2 -2 -2 -2 -1 -1 -1 -1
-3 -3 -3 -3 -3 -3 -3 -3 -3 -2 -2 -2 -3 -3 -3 -3 -3 -3 -3 -3 -3 -3 -3 -3 -3 -3 -3 -3 -3 -2 -2 -2 -2 -2 -2 -2 -2 -2
-3 -3 -3 -3 -3 -3 -3 -3 -3 -3 -3 -3 -3 -3 -3 -3 -3 -3 -3 -3 -3 -3 -3 -3 -3 -3 -3 -3 -3 -3 -3 -3 -3 -2 -2 -2 -2 -2
-3 -3 -3 -3 -3 -4 -3 -3 -3 -3 -3 -3 -3 -3 -3 -3 -3 -3 -3 -4 -3 -3 -3 -3 -3 -3 -3 -3 -3 -3 -3 -3 -3 -3 -3 -2 -2 -2
-3 -3 -4 -4 -4 -4 -4 -4 -4 -4 -4 -4 -4 -4 -4 -4 -4 -4 -4 -4 -4 -4 -4 -3 -3 -3 -3 -3 -3 -3 -3 -3 -3 -3 -3 -3 -3 -3
-4 -4 -4 -4 -4 -4 -4 -4 -4 -4 -4 -4 -4 -4 -4 -4 -4 -4 -4 -4 -4 -4 -4 -4 -4 -4 -4 -4 -4 -4 -4 -3 -3 -3 -3 -3 -3 -3
-4 -5 -5 -5 -5 -5 -5 -5 -5 -5 -5 -5 -5 -5 -5 -5 -5 -4 -4 -4 -4 -4 -4 -4 -4 -4 -4 -4 -4 -4 -4 -4 -4 -4 -3 -3 -3 -3
-5 -5 -5 -5 -5 -5 -5 -5 -5 -5 -5 -5 -5 -5 -5 -5 -5 -5 -5 -5 -4 -4 -4 -4 -4 -4 -4 -4 -4 -4 -4 -4 -4 -4 -4 -3 -3 -3
-5 -6 -6 -6 -6 -6 -5 -5 -5 -5 -5 -5 -5 -5 -5 -5 -5 -5 -5 -5 -5 -5 -5 -5 -5 -5 -4 -4 -5 -4 -4 -4 -4 -4 -4 -4 -4 -4
-6 -6 -6 -6 -6 -6 -6 -5 -5 -5 -5 -5 -5 -5 -5 -5 -5 -5 -5 -5 -5 -5 -5 -5 -5 -5 -5 -5 -5 -5 -5 -4 -4 -4 -4 -4 -4 -4
Wind_Speed
4 4 3 3 3 2 2 3 4 5 6 3 2 2 3 3 6 5 5 8 10 10 9 10 10 11 11 11 12 12 13 14 14 15 15 16 16 15
3 4 4 3 3 3 3 3 3 5 6 3 2 3 3 5 7 6 6 9 9 9 10 10 10 10 11 12 12 13 13 14 14 15 15 16 15 14
4 4 4 3 3 2 2 3 3 3 6 4 3 3 3 4 4 5 6 5 6 9 10 10 9 10 10 11 12 12 13 13 14 14 15 15 13 12
4 4 3 3 3 3 3 3 3 3 3 5 4 3 3 3 3 4 4 5 5 8 10 10 10 10 10 10 10 11 11 11 12 13 14 13 11 12
4 4 4 3 3 3 3 3 3 3 3 3 4 3 3 3 3 4 4 3 5 7 9 9 9 9 9 10 10 10 10 11 12 11 11 10 10 10
3 4 4 4 4 4 3 3 3 3 2 2 2 3 3 2 2 3 4 3 4 5 6 7 8 9 9 9 9 9 10 10 10 10 9 8 8 9
3 3 3 3 4 3 3 3 3 3 2 2 2 2 2 2 2 2 4 4 4 2 3 4 4 4 5 8 8 8 9 9 9 10 8 7 8 7
3 2 2 2 2 3 4 3 3 3 3 3 2 3 3 2 2 2 3 3 4 2 2 4 3 3 4 4 6 7 8 8 8 9 8 7 6 6
2 2 2 1 1 1 1 3 3 4 4 3 3 4 3 2 2 2 2 3 4 3 3 4 3 4 4 5 6 6 7 8 8 8 8 8 7 6
1 1 1 1 1 0 0 1 1 2 3 2 2 2 2 2 2 3 3 2 3 2 2 2 3 4 5 5 6 6 7 7 8 10 9 8 8 7
1 1 1 1 1 1 1 1 1 2 3 3 3 3 3 2 2 1 1 2 3 3 2 1 2 4 4 3 4 6 6 7 8 10 11 9 8 8
0 0 1 0 1 1 1 0 1 2 2 2 3 4 3 2 2 1 1 1 2 2 2 2 2 3 2 2 2 3 4 6 9 10 11 11 9 5
0 0 0 1 2 2 1 1 1 1 1 1 1 2 2 2 2 2 1 0 1 2 2 2 2 2 1 2 3 3 3 3 5 7 9 11 11 7
0 0 1 2 2 2 2 1 2 2 1 1 2 2 2 2 2 2 3 2 1 2 2 1 1 1 2 2 2 3 3 4 4 4 4 8 10 10
1 1 1 2 3 2 2 2 2 1 1 1 1 2 2 1 2 2 3 3 4 3 2 2 1 1 1 1 2 3 3 3 4 3 4 5 5 5
1 1 2 3 3 3 3 2 2 1 1 1 1 1 2 2 2 2 2 2 3 3 4 4 3 1 1 2 2 3 3 2 3 4 4 4 5 5
1 2 2 1 2 1 2 2 2 2 2 1 1 1 2 2 2 2 2 2 2 2 4 4 4 3 1 1 1 2 2 2 3 3 4 4 4 5
2 2 2 2 1 1 2 2 2 2 1 1 1 1 1 1 2 2 2 2 2 2 3 3 3 3 3 3 2 1 2 2 3 4 3 3 4 4
2 2 1 1 1 2 1 1 1 1 1 1 1 1 1 1 1 2 2 2 2 2 2 2 3 3 3 3 3 4 2 3 3 4 3 3 3 4
2 1 1 1 1 1 1 1 1 1 1 1 1 1 1 1 1 1 1 2 2 2 2 3 3 2 1 1 1 3 5 3 3 3 3 3 2 4
1 1 1 1 1 1 1 1 1 1 1 1 1 1 1 1 1 1 1 2 2 2 2 3 3 4 1 1 1 2 4 6 4 3 2 2 2 3
1 1 1 1 1 1 1 1 1 1 1 1 1 1 1 1 1 1 1 1 1 1 1 2 2 2 2 2 2 3 4 5 7 7 5 2 1 1
1 1 1 1 0 1 1 1 1 1 1 0 0 1 1 1 0 0 1 1 1 1 2 2 2 2 2 2 2 2 4 5 4 5 5 6 4 3
Wind_Direction
235 232 231 236 236 238 243 248 252 277 276 261 272 269 281 279 282 287 282 284 290 290 287 282 281 283 286 288 289 290 291 293 293 292 290 289 287 287
236 230 234 231 238 235 234 250 249 254 270 276 272 294 293 294 286 287 284 288 287 286 284 282 281 282 286 288 285 286 289 291 292 291 288 289 287 288
246 236 236 232 231 237 239 241 251 250 267 286 289 292 291 294 301 296 291 284 283 284 284 284 284 285 287 288 284 286 288 290 293 293 290 291 289 290
242 237 235 242 241 237 235 241 251 251 257 275 289 293 291 291 299 298 303 301 296 292 289 285 285 284 284 288 292 294 294 296 299 298 294 289 285 287
234 233 230 230 243 248 249 248 254 260 257 263 280 292 292 302 307 304 311 313 305 297 291 285 286 285 284 289 293 297 300 302 303 303 300 295 290 285
239 241 235 230 228 230 247 243 248 252 252 258 275 294 299 303 316 311 310 309 303 302 293 291 293 291 290 292 295 299 303 307 313 316 307 302 297 291
252 252 249 251 254 253 258 240 237 244 251 258 267 288 291 312 307 305 303 313 305 318 316 308 305 303 297 293 295 302 309 313 319 323 315 301 298 298
249 258 262 255 276 284 280 279 273 255 242 251 264 268 273 276 290 299 308 318 306 313 315 304 310 305 309 299 302 311 316 322 328 327 331 329 320 314
249 251 272 272 283 210 298 321 314 306 285 262 249 262 265 265 277 291 296 299 294 303 320 303 316 313 316 315 318 322 328 335 341 344 347 346 342 327
267 255 242 256 259 184 81 1 340 326 312 305 280 279 286 270 249 257 269 301 318 325 343 306 321 317 319 318 323 334 340 347 356 0 359 355 349 341
332 317 302 191 287 336 56 20 359 340 339 336 334 343 348 345 343 4 346 350 330 324 353 329 312 322 316 309 329 341 344 351 1 3 2 360 351 345
350 333 312 318 315 341 70 91 340 314 342 358 350 353 3 4 5 9 291 299 319 315 341 348 316 338 331 317 341 350 354 358 2 1 360 0 356 355
59 121 55 358 6 13 17 76 330 344 24 12 3 12 18 18 19 27 25 274 278 285 294 329 325 347 329 330 351 357 3 6 4 0 360 3 2 360
176 95 59 18 24 24 24 27 6 12 39 39 33 18 11 9 13 25 32 23 340 276 264 294 285 317 336 339 336 349 355 358 1 5 8 3 1 1
129 76 34 22 14 23 32 21 18 37 52 41 17 351 346 1 20 26 30 33 22 10 3 350 338 342 355 328 332 336 345 354 5 13 15 10 7 4
85 77 40 27 22 26 24 17 32 54 53 40 5 352 8 24 28 24 23 22 25 5 10 12 17 37 357 330 321 324 340 344 354 358 6 6 5 4
95 81 68 56 47 44 42 43 49 42 34 25 29 23 25 21 19 20 24 18 15 359 3 11 27 44 35 334 5 335 342 353 347 356 6 3 357 6
85 77 66 59 52 42 44 38 31 36 33 25 32 40 34 25 20 19 27 23 19 2 358 355 2 23 40 30 20 352 1 357 352 355 357 7 359 359
72 74 65 58 47 39 33 27 10 6 9 5 19 34 41 32 24 22 22 17 12 2 358 5 15 26 37 15 360 15 15 356 358 2 2 6 352 341
55 58 45 48 49 38 26 11 359 359 359 357 13 36 53 44 33 27 17 9 9 9 10 15 18 19 26 348 332 341 351 346 355 355 352 352 343 339
37 38 30 37 32 15 357 348 342 339 340 354 11 31 48 52 36 23 14 23 33 22 6 360 351 351 355 44 20 359 359 360 349 333 334 345 353 6
30 43 39 34 24 0 342 337 336 341 338 352 22 39 49 61 61 18 43 54 41 29 9 354 353 9 37 50 27 358 356 358 4 4 356 334 312 353
352 10 17 7 336 308 312 326 330 328 330 25 41 66 74 59 24 55 72 65 53 55 41 24 17 27 35 34 29 10 3 357 1 9 8 12 13 339
Height
1452 1453 1453 1454 1454 1455 1455 1456 1456 1452 1450 1450 1450 1449 1449 1449 1448 1447 1446 1445 1444 1442 1441 1440 1440 1440 1439 1438 1437 1436 1436 1435 1434 1433 1432 1432 1431 1431
1448 1448 1448 1448 1449 1450 1450 1451 1450 1450 1446 1445 1445 1444 1444 1443 1443 1442 1441 1440 1439 1437 1436 1435 1435 1434 1433 1432 1431 1431 1430 1429 1428 1427 1426 1425 1425 1424
1443 1443 1443 1443 1443 1444 1444 1445 1445 1444 1442 1440 1440 1440 1439 1438 1437 1437 1436 1435 1433 1433 1431 1430 1430 1429 1428 1427 1425 1424 1424 1423 1421 1420 1419 1419 1418 1417
1438 1438 1438 1439 1438 1439 1439 1439 1439 1439 1438 1436 1435 1435 1434 1434 1433 1432 1431 1430 1429 1428 1427 1426 1425 1423 1422 1421 1420 1419 1418 1417 1415 1413 1413 1412 1411 1411
1434 1434 1434 1434 1433 1434 1434 1434 1434 1434 1433 1432 1431 1431 1430 1429 1428 1427 1426 1425 1424 1423 1422 1421 1420 1419 1418 1417 1415 1414 1412 1411 1409 1407 1405 1405 1404 1404
1429 1429 1429 1429 1429 1429 1429 1429 1429 1429 1429 1428 1427 1426 1426 1425 1425 1423 1422 1421 1420 1419 1418 1417 1416 1415 1414 1412 1411 1409 1407 1406 1404 1402 1400 1399 1399 1399
1425 1425 1425 1425 1425 1425 1425 1425 1425 1424 1424 1424 1423 1422 1422 1421 1421 1420 1419 1417 1416 1415 1414 1413 1412 1410 1409 1408 1406 1405 1403 1402 1400 1397 1395 1394 1394 1394
1420 1421 1421 1421 1421 1421 1422 1421 1421 1421 1421 1420 1420 1419 1418 1418 1418 1417 1416 1414 1412 1413 1411 1409 1408 1407 1405 1404 1402 1401 1400 1398 1396 1394 1392 1391 1390 1390
1417 1417 1417 1417 1418 1418 1418 1418 1417 1418 1418 1418 1417 1416 1415 1415 1414 1413 1413 1412 1410 1410 1409 1406 1405 1403 1402 1401 1400 1399 1397 1395 1394 1392 1389 1388 1387 1387
1414 1414 1414 1414 1415 1415 1414 1414 1414 1414 1414 1414 1414 1413 1413 1413 1412 1411 1410 1409 1408 1407 1407 1404 1402 1400 1399 1398 1398 1396 1395 1393 1392 1390 1388 1386 1385 1385
1411 1412 1412 1412 1412 1412 1412 1411 1411 1411 1412 1412 1412 1411 1410 1410 1410 1409 1408 1407 1405 1404 1404 1402 1400 1398 1396 1396 1395 1394 1393 1392 1390 1389 1387 1385 1385 1384
1409 1409 1409 1410 1410 1410 1410 1409 1408 1409 1409 1409 1409 1409 1408 1408 1408 1407 1407 1405 1404 1403 1402 1401 1398 1397 1395 1394 1393 1392 1392 1391 1390 1388 1386 1385 1384 1383
1407 1407 1407 1408 1408 1408 1408 1407 1407 1407 1407 1407 1407 1407 1406 1406 1406 1405 1405 1404 1403 1402 1401 1400 1398 1397 1396 1394 1392 1392 1391 1390 1389 1388 1387 1385 1384 1383
1405 1405 1406 1406 1406 1406 1406 1406 1406 1406 1405 1405 1405 1405 1405 1404 1404 1404 1404 1403 1402 1401 1400 1399 1398 1397 1396 1394 1393 1392 1391 1391 1389 1388 1387 1386 1384 1383
1403 1404 1404 1405 1405 1404 1404 1404 1404 1404 1404 1403 1403 1403 1404 1404 1403 1403 1402 1402 1401 1400 1399 1398 1397 1397 1396 1395 1393 1392 1391 1391 1390 1388 1387 1385 1384 1382
1402 1402 1403 1403 1403 1403 1403 1403 1403 1403 1403 1402 1402 1403 1403 1402 1402 1401 1401 1400 1400 1399 1399 1398 1397 1397 1396 1395 1394 1393 1392 1391 1390 1389 1387 1386 1384 1383
1400 1400 1401 1401 1402 1402 1402 1402 1402 1402 1402 1402 1401 1402 1402 1401 1401 1401 1400 1400 1399 1398 1398 1398 1397 1396 1396 1395 1394 1393 1393 1392 1391 1389 1387 1385 1384 1383
1399 1399 1399 1400 1400 1401 1401 1401 1401 1401 1401 1401 1401 1401 1401 1401 1401 1400 1400 1400 1399 1398 1398 1397 1397 1396 1396 1395 1396 1394 1393 1392 1391 1390 1388 1385 1384 1383
1398 1398 1399 1399 1400 1400 1400 1400 1401 1401 1401 1401 1401 1401 1401 1401 1400 1400 1400 1399 1399 1398 1398 1398 1397 1396 1395 1395 1396 1395 1394 1392 1390 1389 1388 1386 1384 1384
1397 1398 1398 1399 1399 1399 1400 1400 1400 1400 1401 1400 1400 1400 1400 1400 1400 1400 1399 1399 1399 1398 1398 1398 1397 1397 1396 1396 1395 1395 1395 1393 1391 1389 1388 1387 1386 1385
1396 1397 1397 1398 1398 1399 1399 1399 1399 1400 1400 1400 1400 1400 1400 1400 1400 1400 1399 1399 1399 1398 1398 1398 1398 1398 1397 1396 1395 1395 1395 1394 1392 1391 1389 1387 1385 1384
1395 1396 1396 1397 1397 1398 1398 1398 1399 1399 1399 1399 1399 1399 1400 1400 1400 1399 1399 1399 1399 1399 1398 1398 1398 1398 1397 1396 1395 1395 1394 1394 1393 1392 1391 1389 1387 1385
1395 1395 1395 1396 1396 1397 1397 1397 1398 1398 1398 1399 1399 1399 1399 1399 1399 1399 1399 1399 1399 1399 1398 1398 1398 1397 1397 1397 1396 1395 1394 1394 1393 1392 1391 1390 1389 1388